This demonstration page uses our WeatherBlox Daily Observations layout. Learn more.

Left ArrowRight Arrow

36.17497, -115.13722

Hourly Observations for May 23, 2016

Temp ( °F °C ) Dew Point ( °F °C ) Humidity (%) Winds ( mph kmh ) Pressure ( in mb ) Visibility ( mi km ) Precip ( " mm )
12:53 am 00:53 Clear 68 20 26 -3.3 21 21 N N/A 29.79 1009 10 16 N/A
1:53 am 01:53 Clear 66 18.9 26 -3.3 22 22 VRB 5 7 29.78 1009 10 16 N/A
2:53 am 02:53 Clear 65 18.3 27 -2.8 24 24 NNE 7 11 29.78 1008 10 16 N/A
3:53 am 03:53 Clear 62 16.7 28 -2.2 28 28 NNE 3 6 29.78 1009 10 16 N/A
4:53 am 04:53 Clear 60 15.6 27 -2.8 28 28 N 3 6 29.79 1009 10 16 N/A
5:53 am 05:53 Sunny 61 16.1 27 -2.8 27 27 N N/A 29.80 1009 10 16 N/A
6:53 am 06:53 Sunny 63 17.2 27 -2.8 26 26 NNE 5 7 29.82 1010 10 16 N/A
7:53 am 07:53 Sunny 66 18.9 30 -1.1 26 26 N N/A 29.82 1010 10 16 N/A
8:53 am 08:53 Sunny 70 21.1 32 undefined 25 25 N N/A 29.83 1010 10 16 N/A
9:53 am 09:53 Sunny 73 22.8 32 undefined 22 22 S 8 13 29.81 1010 10 16 N/A
10:53 am 10:53 Sunny 75 23.9 29 -1.7 18 18 S 15 24 29.80 1009 10 16 N/A
11:53 am 11:53 Sunny 78 25.6 26 -3.3 15 15 S 14 22 29.79 1009 10 16 N/A
12:53 pm 12:53 Sunny 80 26.7 27 -2.8 14 14 S 16 26 29.76 1008 10 16 N/A
1:53 pm 13:53 Sunny 80 26.7 28 -2.2 15 15 S 14 22 29.73 1007 10 16 N/A
2:53 pm 14:53 Sunny 82 27.8 26 -3.3 13 13 S 13 20 29.70 1006 10 16 N/A
3:53 pm 15:53 Sunny 83 28.3 25 -3.9 12 12 SW 18 30 29.69 1005 10 16 N/A
4:53 pm 16:53 Sunny 82 27.8 23 -5 11 11 SSW 17 28 29.68 1005 10 16 N/A
5:53 pm 17:53 Sunny 81 27.2 22 -5.6 11 11 SW 18 30 29.67 1005 10 16 N/A
6:53 pm 18:53 Sunny 79 26.1 20 -6.7 11 11 SW 15 24 29.67 1005 10 16 N/A
7:53 pm 19:53 Clear 77 25 22 -5.6 13 13 WSW 16 26 29.67 1005 10 16 N/A
8:53 pm 20:53 Clear 76 24.4 23 -5 14 14 SW 12 19 29.68 1005 10 16 N/A
9:53 pm 21:53 Clear 75 23.9 26 -3.3 16 16 WSW 7 11 29.69 1006 10 16 N/A
10:53 pm 22:53 Clear 73 22.8 31 -0.6 21 21 WSW 8 13 29.70 1006 10 16 N/A
11:53 pm 23:53 Clear 71 21.7 31 -0.6 23 23 W 16 26 29.70 1006 10 16 N/A

Powered by AerisWeather